DW3414 Weather Reports


time (UTC)temp
F
wind
direction
speed
knots
gust
knots
rain 1hr
in
rain 24hr
in
rain mn
in
humidity
%
barometer
mb
20260504045120 45 317 0.0 0.0 0.00 0.00 0.00 77 1013.6
20260504035120 45 317 0.0 0.0 0.00 0.00 0.00 78 1013.3
20260504032120 45 317 0.0 0.0 0.00 0.00 0.00 78 1013.1
20260504025121 44 314 0.0 0.0 0.00 0.00 0.00 78 1012.9
20260504022121 43 314 0.0 0.0 0.00 0.00 0.00 71 1012.7
20260504015120 45 314 0.0 0.0 0.00 0.00 0.00 67 1012.6
20260504012121 48 314 0.0 0.0 0.00 0.00 0.00 67 1012.1
20260504005120 51 314 0.0 0.0 0.00 0.00 0.00 58 1012.1
20260504002120 55 314 0.0 0.0 0.00 0.00 0.00 48 1011.9
20260503235120 60 314 0.0 0.0 0.00 0.00 0.00 37 1011.8
20260503232120 63 314 0.0 4.3 0.00 0.00 0.00 32 1011.9
20260503225121 63 313 0.0 5.2 0.00 0.00 0.00 29 1011.7
20260503222120 63 280 1.7 7.0 0.00 0.00 0.00 28 1011.4
20260503215120 64 267 0.0 7.8 0.00 0.00 0.00 24 1011.7
20260503212120 65 286 4.3 9.6 0.00 0.00 0.00 29 1011.9
20260503205120 63 13 0.0 11.3 0.00 0.00 0.00 25 1012.0
20260503202120 63 288 4.3 13.0 0.00 0.00 0.00 28 1012.5
20260503195120 63 17 3.5 9.6 0.00 0.00 0.00 28 1012.8
20260503192121 61 274 3.5 11.3 0.00 0.00 0.00 30 1013.2
20260503185120 61 181 1.7 12.2 0.00 0.00 0.00 34 1013.7
20260503175120 59 184 6.1 17.4 0.00 0.00 0.00 36 1014.2
20260503072120 44 349 0.0 0.0 0.00 0.00 0.00 65 1012.7